STARLINK-1999 (47594 NORAD) Tracking and Keplerian Element Data

This shows tracking and keplerian element data for the satellite.

Feedback or suggestion? Click here.




ElementValue
Catalog47594
NameSTARLINK-1999
Epoch Orbit1155
Epoch Day106.25002315
Epoch Year2021
RAAN150.2237
Inclination53.0533
Eccentricity9.98E-05
Argument of Perigee72.7295
Mean Anonmoly203.0281
Mean Motion15.06398693
Decay Rate-0.0002578
L11 47594U 21009AY 21106.25002315 -.00025780 00000-0 -17182-2 0 9994
L22 47594 53.0533 150.2237 0000998 72.7295 203.0281 15.06398693 11556

Live tracking and technical data element details for STARLINK-1999 (NORAD 47594). STARLINK-1999 can be tracked NOW for your location showing map with azimuth and elevation plus other details from your city location.

Track the satellite on the map from your city or location and see movement details for azimuth, elevation, latitude, longitude, range, height, and movement on the map or in text.







IsCatalogInMostPopularTable: catalog: 47594, numindb: 17
Update: records affected: 1



GetName: 47594 STARLINK-1999

Hit Count: updated at: Fri, 16 Apr 2021 10:34:32 GMT